Terug naar catalogus

STARLINK-32866

ActiefCommunicatieVLEO
NORAD 62858·PAYLOAD·🇺🇸 United States

Gelanceerd Feb 1, 2025 vanaf Vandenberg Space Force Base

Loading…

Volgende Passages (komende 24 uur)

TLE

VersSource: CelesTrak SupGP

Epoch: Sep 14, 2026, 21:01 UTC

1 62858C 25022E   26257.87618056 -.00018206  00000+0 -53802-3 0  2579
2 62858  53.1588 326.3555 0001209  80.5829 110.9193 15.34393354    19

Volg STARLINK-32866 in realtime met AllMySat

Download on the App Store